When you browse on this site, cookies collect data to enhance your experience and personalize the content and advertising you see.
Visit our Privacy Policy to learn more. By continuing to use the site, you agree to this use of cookies and data.
  • In Germany
  • List of Countries
  • For 7 days
  • Water Temperature
  • Weather Map
  • Weather Widgets
  • user-avatar
    Login

    Hourly Weather Jalalabad

    Today, 17 September, Tuesday

    Time Temperature Precipitation Wind Pressure Humidity
    00:00 +29°C° 0 mm 2 mps 707 mmHg 23%
    01:00 +28°C° 0 mm 2 mps 707 mmHg 21%
    02:00 +27°C° 0 mm 2 mps 707 mmHg 20%
    03:00 +27°C° 0 mm 2 mps 707 mmHg 20%
    04:00 +26°C° 0 mm 2 mps 707 mmHg 21%
    05:00 +25°C° 0 mm 2 mps 707 mmHg 21%
    06:00 +26°C° 0 mm 2 mps 708 mmHg 19%
    07:00 +27°C° 0 mm 2 mps 708 mmHg 17%
    08:00 +28°C° 0 mm 2 mps 709 mmHg 16%
    09:00 +30°C° 0 mm 2 mps 708 mmHg 14%
    10:00 +32°C° 0 mm 2 mps 708 mmHg 12%
    11:00 +34°C° 0 mm 2 mps 708 mmHg 9%
    12:00 +35°C° 0 mm 2 mps 708 mmHg 8%
    13:00 +35°C° 0 mm 1 mps 708 mmHg 7%
    14:00 +36°C° 0 mm 1 mps 707 mmHg 6%
    15:00 +38°C° 0 mm 2 mps 707 mmHg 6%
    16:00 +38°C° 0 mm 2 mps 707 mmHg 6%
    17:00 +38°C° 0 mm 2 mps 707 mmHg 6%
    18:00 +35°C° 0 mm 1 mps 707 mmHg 8%
    19:00 +33°C° 0 mm 1 mps 708 mmHg 11%
    20:00 +31°C° 0 mm 1 mps 708 mmHg 13%
    21:00 +31°C° 0 mm 1 mps 708 mmHg 16%
    22:00 +30°C° 0 mm 1 mps 708 mmHg 19%
    23:00 +27°C° 0 mm 0 mps 708 mmHg 22%

    Tomorrow, 18 September, Wednesday

    Time Temperature Precipitation Wind Pressure Humidity
    00:00 +27°C° 0 mm 0 mps 708 mmHg 24%
    01:00 +26°C° 0 mm 0 mps 708 mmHg 26%
    02:00 +25°C° 0 mm 0 mps 708 mmHg 29%
    03:00 +25°C° 0 mm 0 mps 708 mmHg 29%
    04:00 +25°C° 0 mm 0 mps 708 mmHg 28%
    05:00 +26°C° 0 mm 1 mps 708 mmHg 28%
    06:00 +28°C° 0 mm 1 mps 709 mmHg 24%
    07:00 +29°C° 0 mm 1 mps 709 mmHg 20%
    08:00 +31°C° 0 mm 1 mps 710 mmHg 16%
    09:00 +32°C° 0 mm 1 mps 710 mmHg 15%
    10:00 +33°C° 0 mm 1 mps 710 mmHg 15%
    11:00 +35°C° 0 mm 1 mps 710 mmHg 15%
    12:00 +36°C° 0 mm 1 mps 710 mmHg 14%
    13:00 +36°C° 0 mm 1 mps 709 mmHg 13%
    14:00 +37°C° 0 mm 1 mps 709 mmHg 12%
    15:00 +39°C° 0 mm 1 mps 709 mmHg 12%
    16:00 +39°C° 0 mm 1 mps 709 mmHg 12%
    17:00 +39°C° 0 mm 1 mps 709 mmHg 12%
    18:00 +36°C° 0 mm 1 mps 709 mmHg 15%
    19:00 +35°C° 0 mm 1 mps 709 mmHg 17%
    20:00 +33°C° 0 mm 1 mps 709 mmHg 20%
    21:00 +32°C° 0 mm 1 mps 709 mmHg 22%
    22:00 +30°C° 0 mm 0 mps 709 mmHg 25%
    23:00 +29°C° 0 mm 0 mps 709 mmHg 27%

    Day after tomorrow, 19 September, Thursday

    Time Temperature Precipitation Wind Pressure Humidity
    00:00 +28°C° 0 mm 0 mps 709 mmHg 29%
    01:00 +28°C° 0 mm 0 mps 709 mmHg 30%
    02:00 +27°C° 0 mm 0 mps 708 mmHg 32%
    03:00 +27°C° 0 mm 0 mps 709 mmHg 32%
    04:00 +26°C° 0 mm 0 mps 709 mmHg 32%
    05:00 +26°C° 0 mm 0 mps 709 mmHg 31%
    06:00 +29°C° 0 mm 1 mps 710 mmHg 28%
    07:00 +30°C° 0 mm 1 mps 710 mmHg 24%
    08:00 +32°C° 0 mm 1 mps 711 mmHg 20%
    09:00 +33°C° 0 mm 1 mps 711 mmHg 21%
    10:00 +34°C° 0 mm 1 mps 711 mmHg 21%
    11:00 +36°C° 0 mm 2 mps 711 mmHg 22%
    12:00 +37°C° 0 mm 2 mps 710 mmHg 19%
    13:00 +37°C° 0 mm 2 mps 710 mmHg 17%
    14:00 +38°C° 0 mm 2 mps 709 mmHg 15%
    15:00 +38°C° 0 mm 3 mps 709 mmHg 16%
    16:00 +38°C° 0 mm 3 mps 709 mmHg 18%
    17:00 +38°C° 0 mm 4 mps 709 mmHg 19%
    18:00 +36°C° 0 mm 3 mps 709 mmHg 25%
    19:00 +35°C° 0 mm 2 mps 709 mmHg 31%
    20:00 +32°C° 0 mm 1 mps 710 mmHg 37%
    21:00 +32°C° 0 mm 1 mps 710 mmHg 39%
    22:00 +31°C° 0 mm 1 mps 710 mmHg 41%
    23:00 +29°C° 0 mm 0 mps 710 mmHg 43%

    20 September, Friday

    Time Temperature Precipitation Wind Pressure Humidity
    00:00 +28°C° 0 mm 0 mps 710 mmHg 44%
    01:00 +28°C° 0 mm 0 mps 710 mmHg 45%
    02:00 +29°C° 0 mm 1 mps 709 mmHg 46%
    03:00 +29°C° 0 mm 1 mps 709 mmHg 44%
    04:00 +28°C° 0 mm 1 mps 709 mmHg 42%
    05:00 +28°C° 0 mm 1 mps 709 mmHg 41%
    06:00 +29°C° 0 mm 1 mps 709 mmHg 36%
    07:00 +30°C° 0 mm 1 mps 710 mmHg 31%
    08:00 +30°C° 0 mm 1 mps 710 mmHg 26%
    09:00 +32°C° 0 mm 1 mps 710 mmHg 24%
    10:00 +33°C° 0 mm 1 mps 710 mmHg 22%
    11:00 +34°C° 0 mm 1 mps 710 mmHg 20%
    12:00 +35°C° 0 mm 1 mps 709 mmHg 17%
    13:00 +36°C° 0 mm 1 mps 709 mmHg 14%
    14:00 +37°C° 0 mm 1 mps 708 mmHg 11%
    15:00 +37°C° 0 mm 1 mps 708 mmHg 12%
    16:00 +38°C° 0 mm 2 mps 708 mmHg 12%
    17:00 +38°C° 0 mm 2 mps 708 mmHg 13%
    18:00 +36°C° 0 mm 2 mps 708 mmHg 20%
    19:00 +34°C° 0 mm 1 mps 708 mmHg 27%
    20:00 +32°C° 0 mm 1 mps 709 mmHg 34%
    21:00 +32°C° 0 mm 1 mps 709 mmHg 38%
    22:00 +31°C° 0 mm 1 mps 709 mmHg 42%
    23:00 +31°C° 0 mm 1 mps 709 mmHg 46%

    21 September, Saturday

    Time Temperature Precipitation Wind Pressure Humidity
    00:00 +30°C° 0 mm 1 mps 709 mmHg 47%
    01:00 +30°C° 0 mm 1 mps 709 mmHg 48%
    02:00 +29°C° 0 mm 1 mps 708 mmHg 50%
    03:00 +27°C° 0 mm 0 mps 708 mmHg 49%
    04:00 +26°C° 0 mm 0 mps 708 mmHg 48%
    05:00 +26°C° 0 mm 0 mps 708 mmHg 47%
    06:00 +27°C° 0 mm 0 mps 709 mmHg 43%
    07:00 +27°C° 0 mm 0 mps 709 mmHg 39%
    08:00 +28°C° 0 mm 0 mps 709 mmHg 34%
    09:00 +31°C° 0 mm 1 mps 709 mmHg 33%
    10:00 +33°C° 0 mm 1 mps 709 mmHg 32%
    11:00 +34°C° 0 mm 1 mps 709 mmHg 31%
    12:00 +35°C° 0 mm 1 mps 709 mmHg 27%
    13:00 +36°C° 0 mm 1 mps 708 mmHg 23%
    14:00 +38°C° 0 mm 2 mps 707 mmHg 19%
    15:00 +38°C° 0 mm 2 mps 707 mmHg 19%
    16:00 +38°C° 0 mm 2 mps 707 mmHg 19%
    17:00 +38°C° 0 mm 2 mps 707 mmHg 18%
    18:00 +37°C° 0 mm 2 mps 707 mmHg 23%
    19:00 +35°C° 0 mm 2 mps 708 mmHg 28%
    20:00 +33°C° 0 mm 1 mps 708 mmHg 32%
    21:00 +32°C° 0 mm 1 mps 708 mmHg 36%
    22:00 +31°C° 0 mm 1 mps 708 mmHg 40%
    23:00 +31°C° 0 mm 1 mps 708 mmHg 44%

    22 September, Sunday

    Time Temperature Precipitation Wind Pressure Humidity
    00:00 +30°C° 0 mm 1 mps 708 mmHg 46%
    01:00 +30°C° 0 mm 1 mps 708 mmHg 48%
    02:00 +29°C° 0 mm 1 mps 708 mmHg 50%
    03:00 +29°C° 0 mm 1 mps 708 mmHg 52%
    04:00 +29°C° 0 mm 1 mps 708 mmHg 53%
    05:00 +28°C° 0 mm 1 mps 708 mmHg 54%
    06:00 +29°C° 0 mm 1 mps 709 mmHg 52%
    07:00 +30°C° 0 mm 1 mps 709 mmHg 50%
    08:00 +31°C° 0 mm 1 mps 710 mmHg 47%
    09:00 +32°C° 0 mm 1 mps 710 mmHg 45%
    10:00 +33°C° 0 mm 1 mps 710 mmHg 42%
    11:00 +35°C° 0 mm 2 mps 710 mmHg 40%
    12:00 +36°C° 0 mm 2 mps 709 mmHg 36%
    13:00 +37°C° 0 mm 2 mps 709 mmHg 32%
    14:00 +38°C° 0 mm 2 mps 708 mmHg 29%
    15:00 +38°C° 0 mm 2 mps 708 mmHg 28%
    16:00 +38°C° 0 mm 2 mps 708 mmHg 27%
    17:00 +38°C° 0 mm 2 mps 708 mmHg 26%
    18:00 +37°C° 0 mm 2 mps 708 mmHg 29%
    19:00 +36°C° 0 mm 2 mps 708 mmHg 33%
    20:00 +34°C° 0 mm 1 mps 708 mmHg 36%
    21:00 +33°C° 0 mm 1 mps 709 mmHg 39%
    22:00 +33°C° 0 mm 1 mps 709 mmHg 41%
    23:00 +30°C° 0 mm 0 mps 709 mmHg 44%
    Show more